Location: *
(45.0500°N, 12.0500°E)
Time: 16:22:53
(UTC+00:00)

MOS 1 Rocket - Pass Details

Date: 09 April 2020
Orbit: 614 x 830 km, 97.4° (Epoch: 01 June)

Event Time Altitude Azimuth Distance (km) Brightness Sun altitude
Rises 19:15:26 0° 14° (NNE) 3,353 7.0 -14.9°
Reaches altitude 10° 19:17:48 10° 18° (NNE) 2,431 6.2 -15.3°
Maximum altitude 19:23:13 66° 100° (E) 907 3.6 -16.1°
Drops below altitude 10° 19:28:36 10° 183° (S) 2,422 5.8 -17.0°
Sets 19:30:57 0° 186° (S) 3,338 6.6 -17.3°
